Station 42013 - C10 - WFS Central Buoy, 25m Isobath Image indicating link to RSS feed of recent meteorological observations for station 42013


Conditions at 42013 as of
(11:35 pm CDT on 05/20/2024)
0435 GMT on 05/21/2024:
     

Click on the graph icon in the table below to see a time series plot of the last five days of that observation.

5-day plot - Wind Direction Wind Direction (WDIR): N ( 350 deg true )
5-day plot - Wind Speed Wind Speed (WSPD): 11.7 kts
5-day plot - Wind Gust Wind Gust (GST): 13.6 kts
5-day plot - Atmospheric Pressure Atmospheric Pressure (PRES):29.92 in
5-day plot - Air Temperature Air Temperature (ATMP): 79.3 °F
5-day plot - Water Temperature Water Temperature (WTMP): 82.0 °F
5-day plot - Dew Point Dew Point (DEWP): 79.2 °F
5-day plot - Heat Index Heat Index (HEAT): 84.9 °F
5-day plot - Wind Speed at 10 Meters Wind Speed at 10 meters (WSPD10M): 13.6 kts
5-day plot - Wind Speed at 20 Meters Wind Speed at 20 meters (WSPD20M): 13.6 kts
5-day plot -  Wind Speed, Wind Gust and Atmospheric Pressure Combined plot of Wind Speed, Gust, and Air Pressure
Previous observations
TIME
(CDT)
5-day plot - Wind Direction
WDIR
 
5-day plot - Wind Speed
WSPD
kts
5-day plot - Wind Gust
GST
kts
5-day plot - Wave Height
WVHT
ft
5-day plot - Dominant Wave Period
DPD
sec
5-day plot - Average Wave Period
APD
sec
5-day plot - Mean Wave Direction
MWD
 
5-day plot - Atmospheric Pressure
PRES
in
5-day plot - Pressure Tendency
PTDY
in
5-day plot - Air Temperature
ATMP
°F
5-day plot - Water Temperature
WTMP
°F
5-day plot - Dew Point
DEWP
°F
5-day plot - Salinity
SAL
psu
5-day plot - Visibility
VIS
nmi
5-day plot - Tide (above MLLW)
TIDE
ft
2024-05-20 11:05 pmNNW 9.7 11.7----29.93- 79.5 82.0 79.3---
2024-05-20 10:35 pmNNW 5.8 7.8----29.93- 79.9 82.2 79.9---
2024-05-20 10:05 pmNNW 7.8 9.7----29.93- 79.9 82.2 79.9---
2024-05-20 09:35 pmNNW 7.8 9.7----29.93- 79.5 82.2 79.5---
2024-05-20 09:05 pmNNW 7.8 9.7----29.92- 79.7 82.2 79.7---
2024-05-20 08:35 pmNNW 7.8 11.7----29.92- 79.5 82.2 79.5---
2024-05-20 08:05 pm N 7.8 9.7----29.91- 79.3 82.4 79.3---
2024-05-20 07:35 pm N 7.8 9.7----29.91- 79.3 82.4 79.3---
2024-05-20 07:05 pm N 9.7 11.7----29.90- 79.7 82.4 79.7---
2024-05-20 06:35 pm N 9.7 11.7----29.89- 80.1 82.6 80.1---
2024-05-20 06:05 pm N 9.7 13.6----29.88- 80.2 82.6 80.2---
2024-05-20 05:35 pm N 9.7 11.7----29.88- 80.6 82.6 80.6---
2024-05-20 05:05 pmNNW 9.7 11.7----29.89- 80.4 82.6 80.4---
2024-05-20 04:35 pmNNW 7.8 9.7----29.90- 80.2 82.8 80.2---
2024-05-20 04:05 pmNNW 7.8 9.7----29.90- 80.2 82.8 80.1---
2024-05-20 03:35 pmNNW 7.8 9.7----29.91- 80.2 82.6 80.1---
2024-05-20 03:05 pmNNW 7.8 9.7----29.91- 80.1 82.6 80.1---
2024-05-20 02:35 pm NW 7.8 9.7----29.92- 80.1 82.6 80.1---
2024-05-20 02:05 pmNNW 7.8 9.7----29.93- 80.1 82.6 80.1---
2024-05-20 01:35 pmNNW 7.8 9.7----29.93- 80.2 82.4 80.2---
2024-05-20 01:05 pm NW 7.8 9.7----29.93- 80.1 82.4 79.9---
2024-05-20 12:35 pm NW 7.8 11.7----29.94- 79.9 82.2 79.9---
2024-05-20 12:05 pm NW 7.8 9.7----29.94- 79.9 82.2 79.7---
2024-05-20 11:35 am NW 7.8 9.7----29.94- 79.9 82.0 79.9---
2024-05-20 11:05 am NW 7.8 9.7----29.94- 79.9 81.9 79.9---
2024-05-20 10:35 am NW 7.8 7.8----29.94- 79.9 81.9 79.9---
2024-05-20 10:05 am NW 7.8 9.7----29.94- 79.9 81.7 79.9---
2024-05-20 09:35 am NW 7.8 9.7----29.93- 79.7 81.7 79.7---
2024-05-20 09:05 am NW 5.8 7.8----29.93- 79.9 81.5 79.9---
2024-05-20 08:35 amNNW 5.8 7.8----29.93- 79.7 81.5 79.7---
2024-05-20 08:05 am NW 5.8 7.8----29.92- 79.7 81.5 79.7---
2024-05-20 07:35 amWNW 5.8 7.8----29.92- 79.5 81.5 79.5---
2024-05-20 07:05 am NW 7.8 9.7----29.91- 79.5 81.5 79.5---
2024-05-20 06:35 am NW 5.8 7.8----29.91- 79.5 81.5 79.5---
2024-05-20 06:05 am NW 5.8 7.8----29.90- 79.3 81.5 79.3---
2024-05-20 05:35 am NW 5.8 7.8----29.89- 79.2 81.5 79.2---
2024-05-20 05:05 am NW 3.9 7.8----29.88- 79.3 81.5 79.3---
2024-05-20 04:35 am W 5.8 5.8----29.88- 79.3 81.5 79.3---
2024-05-20 04:05 am W 5.8 7.8----29.87- 79.5 81.5 79.3---
2024-05-20 03:35 am W 5.8 7.8----29.87- 79.3 81.5 79.3---
2024-05-20 03:05 amWSW 3.9 5.8----29.87- 79.5 81.5 79.5---
2024-05-20 02:35 am W 1.9 3.9----29.88- 79.5 81.5 79.5---
2024-05-20 02:05 am W 1.9 1.9----29.89- 79.5 81.5 79.5---
2024-05-20 01:35 am SW 1.9 3.9----29.90- 79.7 81.7 79.7---
2024-05-20 01:05 am W 1.9 3.9----29.91- 79.9 81.7 79.9---

Disclaimer: Ocean current directions are reported to the nearest 10 degrees and speeds are measured to the nearest whole centimeter per second.

Ocean Current Data for 42013

Unit of Measure:   Time Zone:   
11:57 pm CDT10:57 pm CDT 9:57 pm CDT
Depth
ft
Dir
°
Speed
kts
Dir
°
Speed
kts
Dir
°
Speed
kts
10 230 0.16230 0.17230 0.16
13 240 0.16240 0.17230 0.16
16 230 0.19230 0.17230 0.16
20 240 0.17240 0.16230 0.16
23 230 0.17220 0.12230 0.14
26 230 0.12210 0.06240 0.06
30 190 0.08140 0.04 40 0.00
33 150 0.08120 0.08110 0.06
36 140 0.10110 0.12 90 0.10
39 140 0.14110 0.12100 0.14
43 140 0.12130 0.12 90 0.17
46 150 0.10140 0.10100 0.16
49 160 0.10130 0.08100 0.16
52 150 0.10120 0.08100 0.14
56 150 0.08130 0.10100 0.12
59 160 0.08130 0.10100 0.12
62 150 0.10140 0.10100 0.12
66 160 0.10140 0.08100 0.12

Previous (up to 48) reports of ocean current data for 42013

Ocean Current Stick Plots are available in metric units only:

All Instruments - 1-day plot - ocean current 1-day plot     3-day plot - ocean current 3-day plot     5-day plot - ocean current 5-day plot     


Solar Radiation Conditions at 42013 as of
(11:35 pm CDT on 05/20/2024)
0435 GMT on 05/21/2024:
     

Click on the graph icon in the table below to see a time series plot of the last five days of that observation.

5-day plot - Long Wave Radiation Long Wave Radiation (LWRAD): 377.1watts/meter2
Previous observations
TIME
(CDT)
5-day plot - Short Wave Radiation 1
SRAD1
w/m2
5-day plot - Short Wave Radiation 2
SRAD2
w/m2
5-day plot - Long Wave Radiation
LRAD
w/m2
2024-05-20 11:05 pm-- 376.5
2024-05-20 10:35 pm-- 373.5
2024-05-20 10:05 pm-- 373.0
2024-05-20 09:35 pm-- 374.2
2024-05-20 09:05 pm-- 376.6
2024-05-20 08:35 pm-- 379.3
2024-05-20 08:05 pm-- 380.0
2024-05-20 07:35 pm-- 383.2
2024-05-20 07:05 pm 19.1- 381.7
2024-05-20 06:35 pm 94.0- 385.8
2024-05-20 06:05 pm 188.2- 389.9
2024-05-20 05:35 pm 290.1- 393.1
2024-05-20 05:05 pm 398.4- 397.2
2024-05-20 04:35 pm 505.7- 400.5
2024-05-20 04:05 pm 582.5- 402.1
2024-05-20 03:35 pm 708.8- 404.5
2024-05-20 03:05 pm 783.9- 406.6
2024-05-20 02:35 pm 873.9- 407.7
2024-05-20 02:05 pm 935.0- 410.8
2024-05-20 01:35 pm 978.5- 413.1
2024-05-20 01:05 pm1006.0- 416.0
2024-05-20 12:35 pm1019.0- 415.8
2024-05-20 12:05 pm1012.7- 416.0
2024-05-20 11:35 am 982.0- 414.7
2024-05-20 11:05 am 940.7- 413.4
2024-05-20 10:35 am 853.2- 417.8
2024-05-20 10:05 am 827.4- 411.9
2024-05-20 09:35 am 744.3- 411.3
2024-05-20 09:05 am 657.0- 410.0
2024-05-20 08:35 am 529.5- 405.3
2024-05-20 08:05 am 417.5- 404.2
2024-05-20 07:35 am 294.2- 402.8
2024-05-20 07:05 am 192.5- 401.0
2024-05-20 06:35 am 101.9- 399.9
2024-05-20 06:05 am 26.5- 399.7
2024-05-20 05:35 am 0.1- 398.0
2024-05-20 05:05 am-- 397.9
2024-05-20 04:35 am-- 398.0
2024-05-20 04:05 am-- 397.4
2024-05-20 03:35 am-- 396.8
2024-05-20 03:05 am-- 397.5
2024-05-20 02:35 am-- 396.6
2024-05-20 02:05 am-- 395.9
2024-05-20 01:35 am-- 396.2
2024-05-20 01:05 am-- 394.2